Weather reports worldwide

Advertisment
Capo Mele, Italy (16153): temperature & dewpoint: 26.06.2020 07:00:00 - 02.07.2020 07:00:00 (CEST)Capo Mele, Italy (16153): wind speed: 26.06.2020 07:00:00 - 02.07.2020 07:00:00 (CEST)Capo Mele, Italy (16153): wind direction: 26.06.2020 07:00:00 - 02.07.2020 07:00:00 (CEST)Capo Mele, Italy (16153): reduced air pressure: 26.06.2020 07:00:00 - 02.07.2020 07:00:00 (CEST)Capo Mele, Italy (16153): visibility: 26.06.2020 07:00:00 - 02.07.2020 07:00:00 (CEST)Capo Mele, Italy (16153): sunshine duration: 26.06.2020 07:00:00 - 02.07.2020 07:00:00 (CEST)
Date & Time tt [°C] td [°C] ff [km/h] ff [kn] dd ppp [hPa] vv [km] sd [min]
02.07.2020 07:00:00 - - - - - - - -
02.07.2020 06:00:00 20,4 20,2 0 0 N 1011,9 20 0
02.07.2020 05:00:00 20,0 19,5 5 3 NE 1011,7 20 -
02.07.2020 04:00:00 20,4 19,7 5 3 NNE 1011,7 20 -
02.07.2020 03:00:00 20,4 19,4 9 5 N 1012,8 20 -
02.07.2020 02:00:00 20,6 19,4 8 4 N 1012,6 15 -
02.07.2020 01:00:00 20,2 19,4 9 5 NE 1012,8 15 -
02.07.2020 00:00:00 20,4 19,4 11 6 NNE 1012,7 15 -
01.07.2020 23:00:00 21,2 20,0 9 5 NNE 1012,2 15 -
01.07.2020 22:00:00 21,4 20,0 11 6 NNE 1012,2 15 -
01.07.2020 21:00:00 21,8 19,9 15 8 NNE 1012,1 15 -
01.07.2020 20:00:00 22,4 20,5 8 4 NNE 1012,1 15 0
01.07.2020 19:00:00 22,6 20,3 5 3 NNE 1012,1 15 0
01.07.2020 18:00:00 23,0 20,5 5 3 E 1012,6 15 6
01.07.2020 17:00:00 24,0 21,1 8 4 E 1012,9 20 36
01.07.2020 16:00:00 25,2 21,5 15 8 E 1013,3 20 36
01.07.2020 15:00:00 25,0 21,7 15 8 NE 1013,3 15 6
01.07.2020 14:00:00 24,4 21,5 11 6 E 1013,3 15 6
01.07.2020 13:00:00 25,6 22,1 15 8 NE 1013,2 20 0
01.07.2020 12:00:00 23,2 21,1 9 5 N 1013,4 15 0
01.07.2020 11:00:00 23,0 20,5 18 10 NNE 1013,4 15 0
01.07.2020 10:00:00 22,6 20,1 5 3 NNE 1013,5 15 0
01.07.2020 09:00:00 21,6 20,1 4 2 NNE 1013,6 15 0
01.07.2020 08:00:00 20,8 20,0 13 7 N 1013,6 12 -
01.07.2020 07:00:00 20,6 20,6 13 7 NNE 1013,1 12 -
01.07.2020 06:00:00 21,0 20,8 13 7 NNE 1012,9 15 -
01.07.2020 05:00:00 21,0 20,7 13 7 NE 1013,3 15 -
01.07.2020 04:00:00 21,0 20,7 16 9 NNE 1013,4 12 -
01.07.2020 03:00:00 21,0 20,0 15 8 NNE 1013,4 12 -
01.07.2020 02:00:00 21,0 20,0 15 8 NE 1013,5 12 -
01.07.2020 01:00:00 21,0 20,7 16 9 NNE 1013,5 12 -
01.07.2020 00:00:00 21,6 20,8 16 9 NNE 1013,5 10 -
30.06.2020 23:00:00 21,8 21,1 22 12 NNE 1013,4 10 -
30.06.2020 22:00:00 22,2 21,4 16 9 NE 1012,9 10 -
30.06.2020 21:00:00 23,0 21,8 18 10 NE 1012,9 10 0
30.06.2020 20:00:00 23,2 22,4 15 8 NE 1012,8 12 0
30.06.2020 19:00:00 24,4 22,5 18 10 NNE 1012,6 15 0
30.06.2020 18:00:00 25,2 22,1 15 8 NNE 1013,1 20 6
30.06.2020 17:00:00 25,6 21,9 18 10 NE 1013,1 20 18
30.06.2020 16:00:00 27,8 22,1 22 12 NE 1012,9 15 42
30.06.2020 15:00:00 26,0 21,4 24 13 NE 1013,0 15 54
30.06.2020 14:00:00 25,2 21,5 24 13 NE 1013,1 12 0
30.06.2020 13:00:00 25,0 21,9 24 13 NNE 1013,0 12 0
30.06.2020 12:00:00 26,8 21,8 31 17 NNE 1012,0 12 24
30.06.2020 11:00:00 25,4 21,5 29 16 NNE 1012,1 12 60
30.06.2020 10:00:00 25,0 20,5 31 17 NNE 1012,2 15 60
30.06.2020 09:00:00 24,0 19,7 29 16 NNE 1011,4 15 60
30.06.2020 08:00:00 22,0 19,9 22 12 NNE 1011,5 20 18
30.06.2020 07:00:00 22,0 19,9 16 9 NNE 1011,5 20 -
30.06.2020 06:00:00 21,4 19,5 16 9 NE 1011,4 20 -
30.06.2020 05:00:00 21,8 20,6 22 12 NNE 1011,3 20 -
30.06.2020 04:00:00 21,8 20,6 21 11 NE 1011,3 20 -
30.06.2020 03:00:00 21,8 20,8 28 15 NNE 1011,3 20 -
30.06.2020 02:00:00 22,0 21,5 15 8 NE 1011,4 10 -
30.06.2020 01:00:00 22,0 21,7 28 15 NNE 1011,4 10 -
30.06.2020 00:00:00 22,4 22,1 28 15 NNE 1011,3 10 -
29.06.2020 23:00:00 22,6 22,3 29 16 NNE 1010,9 10 -
29.06.2020 22:00:00 23,0 22,7 29 16 NNE 1010,6 10 -
29.06.2020 21:00:00 25,0 23,8 26 14 NNE 1010,3 10 0
29.06.2020 20:00:00 26,0 22,5 28 15 NE 1010,2 10 24
29.06.2020 19:00:00 27,0 22,4 26 14 NE 1010,6 10 54
29.06.2020 18:00:00 28,0 22,2 24 13 NNE 1010,9 20 60
29.06.2020 17:00:00 28,0 22,5 22 12 NNE 1010,9 30 60
29.06.2020 16:00:00 28,0 22,7 18 10 NE 1011,1 30 60
29.06.2020 15:00:00 27,0 22,2 16 9 NE 1011,9 20 60
29.06.2020 14:00:00 25,4 21,3 11 6 NE 1012,2 30 60
29.06.2020 13:00:00 25,0 21,7 8 4 SSE 1012,2 30 60
29.06.2020 12:00:00 25,0 20,9 8 4 S 1012,2 30 60
29.06.2020 11:00:00 25,4 20,4 11 6 NE 1012,2 30 60
29.06.2020 10:00:00 24,0 20,7 15 8 NE 1012,3 30 60
29.06.2020 09:00:00 22,0 19,2 15 8 NE 1012,6 30 60
29.06.2020 08:00:00 20,2 19,4 11 6 NNE 1012,8 20 6
29.06.2020 07:00:00 20,2 19,4 15 8 NNE 1012,7 15 -
29.06.2020 06:00:00 20,2 19,4 18 10 NNE 1012,8 15 -
29.06.2020 05:00:00 20,4 19,1 15 8 NNE 1013,4 35 -
29.06.2020 04:00:00 20,2 18,9 18 10 N 1013,6 35 -
29.06.2020 03:00:00 20,6 19,2 15 8 N 1014,4 35 -
29.06.2020 02:00:00 20,6 18,5 13 7 N 1014,6 35 -
29.06.2020 01:00:00 20,4 18,9 11 6 NNE 1014,9 35 -
29.06.2020 00:00:00 20,8 19,3 5 3 W 1015,0 35 -
28.06.2020 23:00:00 21,0 19,5 8 4 W 1015,4 35 -
28.06.2020 22:00:00 21,4 20,7 15 8 WSW 1015,4 30 -
28.06.2020 21:00:00 22,4 17,3 16 9 WSW 1015,2 30 18
28.06.2020 20:00:00 23,2 19,2 22 12 SW 1015,4 35 60
28.06.2020 19:00:00 23,4 19,1 21 11 SSW 1015,9 35 60
28.06.2020 18:00:00 23,8 20,1 16 9 SSW 1016,0 35 60
28.06.2020 17:00:00 24,2 20,5 15 8 SSW 1016,4 35 60
28.06.2020 16:00:00 24,8 20,7 15 8 SSW 1016,4 35 60
28.06.2020 15:00:00 24,4 20,3 15 8 SSW 1017,1 35 60
28.06.2020 14:00:00 25,8 20,1 8 4 ESE 1017,2 35 60
28.06.2020 13:00:00 25,6 19,5 11 6 ENE 1017,1 35 60
28.06.2020 12:00:00 25,8 18,5 13 7 ENE 1017,0 35 60
28.06.2020 11:00:00 24,2 19,3 11 6 NE 1017,2 35 60
28.06.2020 10:00:00 23,2 17,9 9 5 ENE 1016,8 35 60
28.06.2020 09:00:00 22,4 18,0 4 2 WSW 1016,8 30 60
28.06.2020 08:00:00 22,0 15,4 5 3 S 1016,5 20 12
28.06.2020 07:00:00 21,0 13,0 4 2 E 1016,5 20 -
28.06.2020 06:00:00 21,0 14,2 5 3 NNW 1016,5 20 -
28.06.2020 05:00:00 21,0 15,3 5 3 NNW 1016,5 20 -
28.06.2020 04:00:00 21,8 17,8 5 3 NE 1016,4 20 -
28.06.2020 03:00:00 21,8 17,8 5 3 NNE 1016,4 20 -
28.06.2020 02:00:00 21,8 16,5 5 3 SSW 1016,4 25 -
28.06.2020 01:00:00 21,8 16,3 5 3 SW 1016,4 25 -
28.06.2020 00:00:00 22,0 16,3 8 4 NE 1016,3 20 -
27.06.2020 23:00:00 22,2 15,3 8 4 NE 1016,3 25 -
27.06.2020 22:00:00 23,0 16,8 5 3 NNE 1016,1 20 -
27.06.2020 21:00:00 24,0 15,5 11 6 NNE 1016,3 20 0
27.06.2020 20:00:00 24,0 14,4 11 6 NNE 1016,3 20 12
27.06.2020 19:00:00 24,8 15,7 13 7 NNE 1016,4 20 0
27.06.2020 18:00:00 25,6 16,5 11 6 NNE 1016,3 20 6
27.06.2020 17:00:00 26,0 20,1 9 5 NNE 1016,4 20 60
27.06.2020 16:00:00 27,2 21,7 9 5 NNE 1016,4 20 60
27.06.2020 15:00:00 26,6 20,0 16 9 ENE 1016,8 20 60
27.06.2020 14:00:00 26,0 19,2 21 11 NE 1016,9 20 60
27.06.2020 13:00:00 26,2 19,6 22 12 NE 1016,9 20 60
27.06.2020 12:00:00 25,6 19,0 24 13 NE 1016,9 20 0
27.06.2020 11:00:00 25,0 17,5 22 12 NE 1016,6 20 60
27.06.2020 10:00:00 23,8 16,6 18 10 NE 1016,6 20 60
27.06.2020 09:00:00 21,4 14,5 13 7 NE 1016,7 20 12
27.06.2020 08:00:00 20,2 14,3 9 5 NE 1016,8 20 -
27.06.2020 07:00:00 20,0 15,2 15 8 NNE 1016,8 20 -
27.06.2020 06:00:00 20,0 15,9 18 10 NNE 1016,8 20 -
27.06.2020 05:00:00 20,0 16,4 18 10 N 1016,7 20 -
27.06.2020 04:00:00 20,0 16,4 18 10 N 1016,8 20 -
27.06.2020 03:00:00 20,0 16,0 18 10 NNE 1016,8 20 -
27.06.2020 02:00:00 20,4 16,8 21 11 NNE 1016,8 20 -
27.06.2020 01:00:00 20,8 18,4 15 8 NNE 1016,8 20 -
27.06.2020 00:00:00 21,0 18,9 18 10 NNE 1016,7 20 -
26.06.2020 23:00:00 21,8 19,2 16 9 NNE 1016,4 20 -
26.06.2020 22:00:00 23,6 19,5 15 8 NNE 1016,1 20 -
26.06.2020 21:00:00 23,0 19,0 16 9 NE 1016,3 20 36
26.06.2020 20:00:00 24,4 19,7 15 8 NE 1016,6 20 60
26.06.2020 19:00:00 25,8 20,4 13 7 NE 1017,1 20 60
26.06.2020 18:00:00 25,8 20,6 11 6 NNE 1017,3 20 60
26.06.2020 17:00:00 26,0 20,6 15 8 NNE 1017,3 20 60
26.06.2020 16:00:00 28,0 20,8 18 10 NE 1017,2 20 60
26.06.2020 15:00:00 27,0 20,1 21 11 NE 1017,1 20 60
26.06.2020 14:00:00 27,0 20,3 22 12 NE 1017,1 20 60
26.06.2020 13:00:00 26,4 19,8 22 12 NE 1017,2 20 60
26.06.2020 12:00:00 26,0 20,6 22 12 NNE 1017,3 20 60
26.06.2020 11:00:00 24,8 20,3 18 10 NNE 1017,5 20 60
26.06.2020 10:00:00 23,6 19,1 18 10 NE 1017,6 20 60
26.06.2020 09:00:00 22,2 20,1 21 11 NE 1017,7 20 60
26.06.2020 08:00:00 20,6 19,6 16 9 NNE 1017,7 20 -
26.06.2020 07:00:00 20,2 19,9 18 10 NNE 1017,7 25 -

tt = temperature
td = dewpoint
ff = wind speed
dd = wind direction
ppp = reduced air pressure
vv = visibility
sd = sunshine duration

Next stations